Tracking 29487 objects as of 11-Sep-2024
HD Live streaming from Space Station
objects crossing your sky now

THOR ABLESTAR DEB

Track THOR ABLESTAR DEB now!
10-day predictions


NORAD ID: 48827
Int'l Code: 1961-015NF
Perigee: 890.9 km
Apogee: 1,414.2 km
Inclination: 68.2 °
Period: 108.2 minutes
Semi major axis: 7523 km
RCS: Unknown
Launch date: June 29, 1961
Source: United States (US)
Launch site: AIR FORCE EASTERN TEST RANGE (AFETR)

Note: This is SATELLITE DEBRIS
Your satellite tracking list
Your tracking list is empty




NASA's NSSDC Master Catalog

Two Line Element Set (TLE):
1 48827U 61015NF  24246.91443370  .00001106  00000-0  17719-2 0  9996
2 48827  68.1601 126.0849 0347743 339.0662  19.6444 13.30351801 63653
Source of the keplerian elements: AFSPC